Content
SEND FEEDBACK

Daily
Averages
Monthly
Summary
Thailand

BANGKOK, THAILAND


Home > Asia > Thailand
Elevation: 66 feet     Latitude: 13 44N     Longitude: 100 34E

WEATHER
 
SELECT A DAY
Number of Records: 235,599;   Date Range: 7/1/96 - 8/30/14
 
SHARE

PRINT THIS DATA

[ ← Previous Day ]
WEATHER ALMANAC - AUGUST 21, 2013
[ Next Day → ]
[ °C ]   °F
Weather ElementAverageHighLow
Temperature85 °F89.6 °F (3:00 pm)82 °F (7:00 am)
Dewpoint72.5 °F75.2 °F (11:30 am)68 °F (9:00 am)
Humidity65.6 %74 % (12:30 am)55 % (9:00 am)
Barometer29.68 in29.73 in (1:00 am)29.62 in (4:00 pm)
Wind Speed8.6 mph17.3 mph (9:30 pm)
Weather ElementAverage
Visibility6.2 mi
Wind DirectionW (268 °)

Weather ElementTotal
Precipitation---
Cooling Degree Days20.8 (Base 65)
Growing Degree Days35.8 (Base 50)
Averaged from 51 records on August 21, 2013
WEATHER CONDITIONS BREAKOUT
WIND DIRECTION BREAKOUT
WEATHER BY HOUR - AUGUST 21, 2013
[ °C ]   °F
Local TimeTemperatureDewpointHumidityBarometerVisibilityWind DirectionWind SpeedGust SpeedPrecipitationEventsConditions
12:30 AM82.4 °F73.4 °F74 %29.71 in6.2 miWSW (250°)6.9 mphMostly Cloudy
1:00 AM83.0 °F72.0 °F63 %29.73 in6.0 miWest (270°)6.9 mphScattered Clouds
1:00 AM82.4 °F71.6 °F70 %29.71 in6.2 miWest (270°)6.9 mphMostly Cloudy
1:30 AM82.4 °F71.6 °F70 %29.71 in6.2 miWSW (250°)5.8 mphMostly Cloudy
2:00 AM82.4 °F71.6 °F70 %29.68 in6.2 miWest (260°)8.1 mphMostly Cloudy
2:30 AM82.4 °F71.6 °F70 %29.68 in6.2 miWSW (250°)4.6 mphMostly Cloudy
3:00 AM82.4 °F71.6 °F70 %29.68 in6.2 miWest (260°)5.8 mphMostly Cloudy
3:30 AM82.4 °F71.6 °F70 %29.65 in6.2 miWest (260°)5.8 mphMostly Cloudy
4:00 AM82.4 °F71.6 °F70 %29.65 in6.2 miWest (260°)4.6 mphMostly Cloudy
4:30 AM82.4 °F71.6 °F70 %29.65 in6.2 miWest (260°)4.6 mphMostly Cloudy
5:00 AM82.4 °F71.6 °F70 %29.65 in6.2 miWest (260°)4.6 mphMostly Cloudy
5:30 AM82.4 °F71.6 °F70 %29.68 in6.2 miWest (260°)3.5 mphMostly Cloudy
6:00 AM82.4 °F71.6 °F70 %29.68 in6.2 miWest (260°)3.5 mphMostly Cloudy
6:30 AM82.4 °F71.6 °F70 %29.68 in6.2 miWest (270°)6.9 mphMostly Cloudy
7:00 AM82.0 °F72.0 °F65 %29.70 in6.0 miWSW (250°)9.2 mphPartly Cloudy
7:00 AM82.4 °F71.6 °F70 %29.68 in6.2 miWSW (250°)9.2 mphMostly Cloudy
7:30 AM82.4 °F71.6 °F70 %29.71 in6.2 miWest (270°)12.7 mphMostly Cloudy
8:00 AM82.4 °F71.6 °F70 %29.71 in6.2 miWSW (250°)11.5 mphMostly Cloudy
8:30 AM84.2 °F73.4 °F70 %29.71 in6.2 miWSW (240°)6.9 mphOvercast
9:00 AM86.0 °F68.0 °F55 %29.71 in6.2 miWSW (240°)9.2 mphMostly Cloudy
9:30 AM86.0 °F68.0 °F55 %29.71 in6.2 miWSW (240°)9.2 mphMostly Cloudy
10:00 AM86.0 °F73.4 °F66 %29.71 in6.2 miWSW (250°)9.2 mphMostly Cloudy
10:30 AM87.8 °F73.4 °F62 %29.71 in6.2 miWSW (250°)9.2 mphMostly Cloudy
11:00 AM87.8 °F73.4 °F62 %29.71 in6.2 miWest (270°)9.2 mphMostly Cloudy
11:30 AM87.8 °F75.2 °F66 %29.71 in6.2 miWest (270°)11.5 mphRainLight Rain
12:00 PM86.0 °F75.2 °F70 %29.71 in6.2 miNorth (350°)6.9 mphMostly Cloudy
12:30 PM87.8 °F75.2 °F66 %29.71 in6.2 miNorth (350°)6.9 mphMostly Cloudy
1:00 PM88.0 °F75.0 °F58 %29.70 in6.0 miWest (270°)5.8 mphPartly Cloudy
1:00 PM87.8 °F75.2 °F66 %29.68 in6.2 miWest (270°)5.8 mphMostly Cloudy
1:30 PM87.8 °F75.2 °F66 %29.68 in6.2 miWest (270°)9.2 mphMostly Cloudy
2:00 PM87.8 °F75.2 °F66 %29.65 in6.2 miWest (270°)9.2 mphMostly Cloudy
2:30 PM87.8 °F75.2 °F66 %29.65 in6.2 miWest (270°)9.2 mphMostly Cloudy
3:00 PM89.6 °F71.6 °F55 %29.65 in6.2 miWest (270°)9.2 mphMostly Cloudy
3:30 PM89.6 °F71.6 °F55 %29.65 in6.2 miWest (270°)9.2 mphMostly Cloudy
4:00 PM89.6 °F71.6 °F55 %29.62 in6.2 miWest (270°)11.5 mphOvercast
4:30 PM89.6 °F71.6 °F55 %29.62 in6.2 miWest (270°)9.2 mphOvercast
5:00 PM89.6 °F71.6 °F55 %29.62 in6.2 miWest (270°)11.5 mphOvercast
5:30 PM89.6 °F71.6 °F55 %29.62 in6.2 miWest (270°)11.5 mphOvercast
6:00 PM87.8 °F71.6 °F58 %29.62 in6.2 miWest (270°)11.5 mphMostly Cloudy
6:30 PM87.8 °F71.6 °F58 %29.65 in6.2 miWest (270°)11.5 mphMostly Cloudy
7:00 PM87.0 °F73.0 °F55 %29.66 in6.0 miWest (270°)11.5 mphOvercast
7:00 PM86.0 °F73.4 °F66 %29.65 in6.2 miWest (270°)11.5 mphMostly Cloudy
7:30 PM86.0 °F73.4 °F66 %29.65 in6.2 miWest (270°)11.5 mphMostly Cloudy
8:00 PM84.2 °F75.2 °F74 %29.68 in5.6 miWest (270°)11.5 mphRainLight Rain
8:30 PM84.2 °F73.4 °F70 %29.68 in5.6 miWest (270°)8.1 mphRainLight Rain
9:00 PM82.4 °F73.4 °F74 %29.68 in6.2 miWest (280°)9.2 mphRainLight Rain
9:30 PM82.4 °F71.6 °F70 %29.68 in6.2 miWNW (290°)17.3 mphMostly Cloudy
10:00 PM82.4 °F71.6 °F70 %29.71 in6.2 miWNW (290°)11.5 mphMostly Cloudy
10:30 PM82.4 °F71.6 °F70 %29.71 in6.2 miWNW (290°)10.4 mphMostly Cloudy
11:00 PM82.4 °F71.6 °F70 %29.71 in6.2 miWest (270°)8.1 mphRainLight Rain
11:30 PM82.4 °F71.6 °F70 %29.71 in6.2 miWest (270°)5.8 mphRainLight Rain
Hourly data recorded from VTBD, located miles away from Bangkok, Thailand







STORIES FROM OUR PARTNERS